TimeEST,TemperatureF,Dew PointF,Humidity,Sea Level PressureIn,VisibilityMPH,Wind Direction,Wind SpeedMPH,Gust SpeedMPH,PrecipitationIn,Events,Conditions,WindDirDegrees,DateUTC
12:54 AM,1.9,-2.9,80,30.13,10.0,East,5.8,-,N/A,,Clear,100,2013-01-24 05:54:00
1:54 AM,1.9,-4.0,76,30.12,10.0,East,6.9,-,N/A,,Clear,100,2013-01-24 06:54:00
2:54 AM,1.0,-4.0,79,30.12,10.0,ESE,3.5,-,N/A,,Overcast,110,2013-01-24 07:54:00
3:54 AM,1.9,-4.0,76,30.12,10.0,ESE,3.5,-,N/A,,Overcast,120,2013-01-24 08:54:00
4:54 AM,1.9,-2.9,80,30.14,10.0,Calm,Calm,-,N/A,,Overcast,0,2013-01-24 09:54:00
5:54 AM,1.9,-2.9,80,30.17,10.0,Calm,Calm,-,N/A,,Overcast,0,2013-01-24 10:54:00
6:54 AM,1.9,-2.9,80,30.19,7.0,Calm,Calm,-,N/A,,Overcast,0,2013-01-24 11:54:00
7:54 AM,1.0,-2.9,83,30.22,7.0,Calm,Calm,-,N/A,,Clear,0,2013-01-24 12:54:00
8:54 AM,5.0,1.0,84,30.25,6.0,SW,4.6,-,N/A,,Clear,220,2013-01-24 13:54:00
9:54 AM,9.0,3.0,77,30.28,8.0,WSW,3.5,-,N/A,,Clear,240,2013-01-24 14:54:00
10:39 AM,12.2,3.2,67,30.24,10.0,NW,5.8,-,N/A,,Mostly Cloudy,310,2013-01-24 15:39:00
10:54 AM,12.0,3.0,67,30.30,10.0,Variable,5.8,-,N/A,,Overcast,0,2013-01-24 15:54:00
11:46 AM,14.0,3.2,62,30.25,10.0,NW,12.7,-,N/A,,Scattered Clouds,320,2013-01-24 16:46:00
11:54 AM,16.0,3.9,59,30.30,10.0,NNW,11.5,-,N/A,,Mostly Cloudy,330,2013-01-24 16:54:00
12:54 PM,16.0,3.0,57,30.31,10.0,NW,16.1,-,N/A,,Mostly Cloudy,310,2013-01-24 17:54:00
1:54 PM,17.1,3.0,54,30.32,8.0,NNW,15.0,21.9,0.00,,Overcast,330,2013-01-24 18:54:00
2:54 PM,17.1,1.0,50,30.34,10.0,NNW,19.6,25.3,0.00,,Overcast,330,2013-01-24 19:54:00
3:54 PM,18.0,1.0,48,30.36,10.0,North,13.8,-,N/A,,Scattered Clouds,350,2013-01-24 20:54:00
4:54 PM,16.0,-0.0,49,30.39,10.0,WNW,10.4,-,N/A,,Scattered Clouds,290,2013-01-24 21:54:00
5:54 PM,15.1,1.0,54,30.42,10.0,NW,9.2,-,N/A,,Mostly Cloudy,320,2013-01-24 22:54:00
6:54 PM,12.9,-0.0,56,30.43,10.0,West,6.9,-,N/A,,Clear,280,2013-01-24 23:54:00
7:54 PM,12.9,-0.9,54,30.46,10.0,NW,11.5,17.3,N/A,,Clear,320,2013-01-25 00:54:00
8:54 PM,12.0,-2.0,53,30.46,10.0,North,8.1,-,N/A,,Clear,360,2013-01-25 01:54:00
9:54 PM,10.0,-2.0,58,30.45,10.0,NNW,6.9,-,N/A,,Clear,330,2013-01-25 02:54:00
10:54 PM,10.0,-2.0,58,30.47,10.0,NW,6.9,-,N/A,,Clear,320,2013-01-25 03:54:00
11:54 PM,9.0,-2.0,61,30.46,10.0,NNW,13.8,24.2,N/A,,Clear,330,2013-01-25 04:54:00